This is the latest recevied weather packets stored in our database for station/object EA5JUX. If no packets are shown the sender has not sent any weather packets the latest 1 day(s).
| Time | Temp. | Humidity | Pressure | Rain* | Wind** | Luminosity | Snow |
|---|---|---|---|---|---|---|---|
| 1778029637 | 16.67° C | 84% | 1009.6 hPa | 0 mm | 0.45 m/s, 225° | - | - |
| 1778029337 | 16.67° C | 84% | 1009.5 hPa | 0 mm | 0.89 m/s, 203° | - | - |
| 1778029037 | 16.67° C | 84% | 1009.5 hPa | 0 mm | 0.89 m/s, 180° | - | - |
| 1778028738 | 16.67° C | 84% | 1009.4 hPa | 0 mm | 0.45 m/s, 248° | - | - |
| 1778028436 | 16.11° C | 84% | 1009.5 hPa | 0 mm | 0 m/s | - | - |
| 1778028137 | 16.11° C | 84% | 1009.5 hPa | 0 mm | 0.89 m/s, 203° | - | - |
| 1778027837 | 16.67° C | 84% | 1009.7 hPa | 0 mm | 0.89 m/s, 248° | - | - |
| 1778027537 | 16.11° C | 84% | 1009.6 hPa | 0 mm | 0.89 m/s, 203° | - | - |
| 1778027251 | 16.11° C | 85% | 1009.7 hPa | 0 mm | 0.89 m/s, 203° | - | - |
| 1778026937 | 16.11° C | 84% | 1009.7 hPa | 0 mm | 0.45 m/s, 248° | - | - |
| 1778026654 | 16.11° C | 85% | 1009.9 hPa | 0 mm | 0.45 m/s, 270° | - | - |
| 1778026348 | 16.11° C | 85% | 1009.7 hPa | 0 mm | 0 m/s | - | - |
| 1778026037 | 16.11° C | 85% | 1010 hPa | 0 mm | 0.45 m/s, 248° | - | - |
| 1778025737 | 16.11° C | 84% | 1009.8 hPa | 0 mm | 0.45 m/s, 248° | - | - |
| 1778025457 | 16.67° C | 84% | 1009.7 hPa | 0 mm | 0.89 m/s, 248° | - | - |
| 1778025137 | 16.67° C | 84% | 1009.5 hPa | 0 mm | 0 m/s | - | - |
| 1778024837 | 16.67° C | 83% | 1009.6 hPa | 0 mm | 0.89 m/s, 315° | - | - |
| 1778024537 | 16.67° C | 83% | 1009.6 hPa | 0 mm | 0.89 m/s, 315° | - | - |
| 1778024248 | 16.67° C | 82% | 1009.4 hPa | 0 mm | 0.89 m/s, 315° | - | - |
| 1778023937 | 17.22° C | 82% | 1009.7 hPa | 0 mm | 0 m/s | - | - |
| 1778023637 | 17.22° C | 82% | 1009.6 hPa | 0 mm | 0 m/s | - | - |
| 1778023337 | 17.22° C | 81% | 1009.5 hPa | 0 mm | 0 m/s | - | - |
| 1778023037 | 17.22° C | 81% | 1009.6 hPa | 0 mm | 0 m/s | - | - |
| 1778022738 | 17.22° C | 81% | 1009.4 hPa | 0 mm | 0 m/s | - | - |
| 1778022438 | 17.22° C | 82% | 1009.5 hPa | 0 mm | 0.89 m/s, 203° | - | - |
* Rain latest hour (hover to see other rain measurements)
** Current wind speed in m/s (hover to see current wind gust speed)